Location: ?????????
(38.5999°N, 22.7695°E)
Time: 16:03:58
(UTC+00:00)

ADEOS II - Pass Details

Date: 23 May 2024
Orbit: 796 x 798 km, 98.7° (Epoch: 23 June)

Event Time Altitude Azimuth Distance (km) Brightness Sun altitude
Rises 01:14:35 0° 7° (N) 3,307 6.2 -18.8°
Reaches altitude 10° 01:16:58 10° 3° (N) 2,373 5.3 -18.5°
Maximum altitude 01:22:01 51° 288° (WNW) 998 2.4 -17.8°
Enters shadow 01:24:18 30° 230° (SW) 1,393 2.8 -17.5°
